Weather in Galushkinsky

Russia / Volgograd Oblast     50°44′41″N   42°50′51″E
temp.,
°C
wind,
m/s
gust,
m/s
humid.,
%
clouds,
%
prec.,
mm/h
press.,
hPa
HPBL,
m
22 may, sun
sun2200:00+9se3887100 0.0 1005320
03:00+9ese4891100 0.6 1002323
06:00+9ese4797100 4.2 998362
09:00+10e4795100 4.8 996423
12:00+10e5894100 0.8 996470
15:00+9e4696100 1.8 996301
18:00+8ene5794100 0.1 997371
21:00+8e4893100 0.2 997357
23 may, mon
mon2300:00+7ene3696100 0.3 997276
03:00+7nne5997100 6.3 998452
06:00+7n5894100 1.3 999396
09:00+6n51089100 1.4 1002496
12:00+12nnw665676 0.0 10031670
15:00+13nw674983 0.0 10042022
18:00+10nnw576148 0.0 10061378
21:00+5nnw35755 0.0 100876
24 may, tue
tue2400:00+4nw22775 0.0 100817
03:00+3w35823 0.0 100975
06:00+6w49784 0.0 1009254
09:00+12w58600 0.0 10091129
12:00+15w78458 0.0 10082101
15:00+16w684171 0.0 10082484
18:00+14wnw5959100 0.0 1009578
21:00+9w467811 0.1 101187
25 may, wed
wed2500:00+6nw34895 0.0 101162
03:00+5w22885 0.0 101214
06:00+7n35865 0.0 1013221
09:00+10nnw565810 0.0 10151281
12:00+12nw5651100 0.0 10151857
15:00+11nw4655100 0.0 10161530
18:00+11nnw356194 0.0 10171006
21:00+9nnw116993 0.0 101718
26 may, thu
thu2600:00+8w1270100 0.0 101823
03:00+6w348240 0.0 101857
06:00+8wnw248063 0.0 1017157
09:00+11sw467799 0.3 1017404
12:00+17sw686589 0.3 10151080
15:00+21wsw81047100 0.6 10122824
18:00+18sw91364100 0.3 1011792
21:00+14sw71380100 0.6 1010527